[[[{"header":{"parameterUnit":"kt","parameterCategory":2,"dx":1,"dy":1,"la1":30.253999710083008,"la2":30.299108505249023,"lo1":-89.0895004272461,"lo2":-89.04439544677734,"nx":28,"ny":28,"refTime":"2022-10-30T21:00:00:Z","depth":"0","parameterNumber":2,"parameterNumberName":"U-component_of_CURRENTS"},"data":[0.8188,0.809,0.8089,0.778,0.772,0.7377,0.7227,0.7069,0.7154,0.7095,0.7199,0.7519,0.8091,0.8333,0.8105,0.7897,0.7263,0.6946,0.6889,0.77,0.7762,0.7821,0.7661,0.7227,0.7226,0.5472,0.5459,0.5449,0.8294,0.8324,0.8385,0.8345,0.821,0.8367,0.8353,0.8173,0.8015,0.8316,0.8378,0.8616,0.8636,0.8789,0.8844,0.8548,0.8083,0.8306,0.7641,0.7498,0.8603,0.8462,0.8191,0.8191,0.8192,0.8192,0.8192,0.8192,0.8528,0.8543,0.8624,0.8649,0.8713,0.8683,0.8594,0.8761,0.8849,0.888,0.9277,0.9249,0.9529,0.9679,0.9573,0.9348,0.9248,0.9069,0.8999,0.8629,0.8267,0.9427,0.9434,0.9437,0.944,0.9443,0.9445,0,0.8649,0.8703,0.8774,0.8865,0.8922,0.9015,0.9137,0.9233,0.9462,0.962,0.971,0.9778,1.0045,0.9903,1.0052,0.9984,0.9501,0.9871,0.967,0.8922,0.8412,0.8134,0.9328,0.9412,0.9416,0.9418,0.942,0.9422,0.876,0.8794,0.8966,0.9001,0.9056,0.9185,0.9241,0.9481,0.9562,0.9879,0.9897,1.0132,1.014,1.0322,1.0255,1.024,0.9905,0.9956,0.9735,0.949,0.9347,0.8934,0.8718,0.9461,0.9456,0.9452,0.9449,0,0.8813,0.892,0.9007,0.9157,0.9198,0.9244,0.9469,0.9516,0.9704,0.9815,0.9848,1.0015,1.0121,1.0185,1.0224,1.016,0.9895,1.0149,0.9851,0.9778,0.9463,0.936,0.8972,0.872,1.0119,1.0119,1.012,0,0.8923,0.8973,0.9125,0.9156,0.9233,0.9337,0.9424,0.9476,0.9628,0.9689,0.9741,0.9815,0.9853,0.9962,0.9914,0.999,1.005,0.9883,0.9847,0.9576,0.9547,0.933,0.9209,0.9925,0.9923,0.9922,0.9921,0,0.8936,0.9088,0.9158,0.9199,0.9332,0.9372,0.9433,0.9502,0.9587,0.9607,0.9681,0.9698,0.9769,0.9783,0.982,0.9736,0.9962,0.9814,0.9783,0.9779,0.9537,0.9504,0.9453,0.992,0.9919,0.9919,0.9918,0,0.9003,0.9092,0.9188,0.9306,0.9328,0.9365,0.9441,0.9488,0.9534,0.953,0.9558,0.9514,0.9604,0.9516,0.9653,0.9587,0.9583,0.9576,0.9579,0.9524,0.938,0.9233,0.9377,0.9142,0.9545,0.9542,0.954,0,0.899,0.9106,0.9167,0.9244,0.9299,0.9338,0.9389,0.9416,0.9407,0.941,0.9393,0.9375,0.9333,0.9312,0.9368,0.9373,0.9432,0.9327,0.9367,0.937,0.9315,0.9511,0.9222,0.934,0.9502,0.9506,0.9509,0,0.8965,0.9098,0.9102,0.9139,0.9209,0.9217,0.9291,0.9313,0.9329,0.9293,0.9305,0.9294,0.9251,0.923,0.9171,0.9213,0.9362,0.9154,0.9153,0.9206,0.9497,0.946,0.9482,0.9311,0.9315,0.9319,0.9479,0,0.8991,0.905,0.908,0.9125,0.9155,0.9185,0.9187,0.92,0.9157,0.9109,0.9127,0.9052,0.9016,0.9008,0.895,0.906,0.9033,0.8963,0.8874,0.9007,0.9055,0.9079,0.8755,0.8753,0.875,0.8749,0,0,0.8932,0.8983,0.899,0.904,0.9059,0.9016,0.9056,0.9033,0.8969,0.896,0.8898,0.8846,0.879,0.8814,0.8842,0.8804,0.8826,0.877,0.8932,0.8952,0.8971,0.9024,0.905,0.8745,0.8744,0.8743,0.8742,0,0.8913,0.8939,0.8982,0.8995,0.9003,0.8969,0.8993,0.8937,0.8898,0.8885,0.8798,0.8788,0.8713,0.8677,0.8651,0.8764,0.8715,0.8755,0.8858,0.891,0.8933,0.8954,0.9011,0.9036,0.8737,0.8737,0.8737,0,0.8869,0.8883,0.8897,0.892,0.888,0.8902,0.8815,0.882,0.8823,0.868,0.8647,0.86,0.8533,0.8532,0.8535,0.8479,0.8607,0.8528,0.854,0.858,0.8631,0.8658,0.8682,0.837,0.8369,0.8368,0,0,0.8855,0.8892,0.8877,0.8906,0.8914,0.8836,0.8826,0.8775,0.8713,0.8676,0.8593,0.8529,0.8508,0.8476,0.8447,0.8455,0.8464,0.8486,0.8503,0.8518,0.8564,0.8619,0.8645,0.8365,0.8365,0.8364,0,0,0.8815,0.882,0.8793,0.8846,0.8824,0.8734,0.874,0.8692,0.8624,0.8605,0.8487,0.8463,0.8479,0.842,0.8381,0.8411,0.8339,0.8345,0.8433,0.8453,0.847,0.853,0.826,0,0,0,0,0,0.8773,0.8835,0.8813,0.8817,0.8772,0.8762,0.8748,0.8657,0.8606,0.8609,0.8522,0.8452,0.8369,0.833,0.8319,0.8365,0.8316,0.8325,0.8333,0.8451,0.8474,0.8493,0,0,0,0,0,0,0.8774,0.8779,0.8811,0.8737,0.8728,0.8757,0.864,0.8613,0.8602,0.8584,0.8468,0.8447,0.8353,0.8331,0.8321,0.8367,0.8263,0.8319,0.8327,0.8333,0.8459,0.8477,0.8493,0,0,0,0,0,0.8775,0.8779,0.8741,0.8732,0.8724,0.8631,0.8636,0.8613,0.8579,0.8479,0.8454,0.8521,0.8356,0.8342,0.8325,0.8374,0.8269,0.8265,0.8324,0.833,0.8335,0.8468,0,0,0,0,0,0,0.8776,0.8713,0.8736,0.8729,0.8714,0.8624,0.8608,0.8613,0.847,0.845,0.8527,0.8515,0.8359,0.8347,0.8337,0.8382,0.8273,0.827,0.8268,0.8329,0.8333,0.8337,0,0,0,0,0,0,0.8712,0.8707,0.8731,0.8714,0.8703,0.8619,0.8606,0.8585,0.8469,0.8519,0.8509,0.8524,0.8397,0.8352,0.8343,0.8311,0.8277,0.8274,0.8272,0.827,0.8332,0.8336,0,0,0,0,0,0,0.8708,0.8703,0.8713,0.8705,0.8694,0.8592,0.8595,0.8555,0.8458,0.8525,0.845,0.8447,0.8405,0.8392,0.8348,0.832,0.8313,0.8277,0.8275,0.8273,0.8272,0,0,0,0,0,0,0,0.8704,0.8766,0.8803,0.8697,0.8688,0.867,0.8666,0.8661,0.8457,0.8454,0.8451,0.8448,0.8295,0.8291,0.8288,0.8327,0,0,0.8277,0.8276,0,0,0,0,0,0,0,0,0.8764,0.8765,0.8803,0.8803,0.8803,0.8669,0.8666,0.8662,0.8456,0.8454,0.8452,0.8449,0.8294,0.8291,0.8288,0,0,0,0,0,0,0,0,0,0,0,0,0,0,0,0.8803,0.8803,0,0.8669,0.8666,0.8663,0.8456,0.8454,0.8452,0.845,0.8293,0.8291,0.8288,0,0,0,0,0,0,0,0,0,0,0,0,0,0,0,0,0,0,0,0,0,0,0,0,0,0,0,0,0,0,0,0,0,0,0,0,0,0,0,0,0,0,0,0,0,0,0,0,0,0,0,0,0,0,0,0,0,0,0,0,0,0,0,0,0,0,0,0,0]}],[{"header":{"parameterUnit":"kt","parameterCategory":2,"dx":1,"dy":1,"la1":30.253999710083008,"la2":30.299108505249023,"lo1":-89.0895004272461,"lo2":-89.04439544677734,"nx":28,"ny":28,"refTime":"2022-10-30T21:00:00:Z","depth":"0","parameterNumber":3,"parameterNumberName":"V-component_of_CURRENTS"},"data":[0.1889,0.2148,0.2291,0.2817,0.3083,0.3501,0.3769,0.418,0.4527,0.4959,0.509,0.5125,0.4205,0.1021,-0.1159,-0.1657,-0.2264,-0.2416,-0.2743,-0.2167,-0.2112,-0.2059,-0.2085,-0.2606,-0.2609,-0.3523,-0.3533,-0.354,0.1811,0.1981,0.2256,0.2617,0.2934,0.3062,0.3525,0.3784,0.4213,0.4577,0.4754,0.4389,0.3176,0.1931,0.0176,-0.078,-0.1109,-0.1301,-0.1553,-0.162,-0.0701,-0.067,-0.0899,-0.0899,-0.0898,-0.0898,-0.0897,-0.0897,0.167,0.1817,0.2046,0.2348,0.2622,0.2983,0.3225,0.3533,0.3888,0.4238,0.4173,0.4225,0.3275,0.1971,0.1202,-0.01,-0.0126,-0.0513,-0.0731,-0.0871,-0.0987,0.0103,-0.005,-0.0051,-0.0052,-0.0052,-0.0053,0,0.1557,0.164,0.1813,0.2127,0.2348,0.2632,0.2896,0.3114,0.3296,0.3494,0.3699,0.3657,0.2987,0.2308,0.1331,0.0812,-0.0101,0.0119,-0.0332,-0.0572,-0.0729,-0.0916,0.0144,0.0058,0.0057,0.0057,0.0057,0.0057,0.1397,0.1522,0.1779,0.1929,0.2018,0.2247,0.2442,0.2556,0.2741,0.2929,0.3077,0.2873,0.2809,0.204,0.1285,0.0562,0.0143,0.0135,0.0039,-0.0348,-0.064,-0.0806,-0.0906,0.0054,0.0054,0.0054,0.0055,0,0.1314,0.1393,0.1606,0.1786,0.1867,0.2024,0.2258,0.2413,0.2453,0.2671,0.2678,0.2538,0.2241,0.1745,0.1206,0.082,0.016,0.0208,0.0347,0.028,-0.0346,-0.0545,-0.0998,-0.1142,-0.0102,-0.0103,-0.0104,0,0.1198,0.1329,0.1459,0.1557,0.1797,0.1811,0.2029,0.2067,0.2156,0.2325,0.2083,0.2168,0.1675,0.1452,0.1028,0.0622,0.0636,0.024,0.0151,0.0229,0.0234,-0.0206,-0.0417,0.019,0.0192,0.0193,0.0195,0,0.1048,0.1211,0.1382,0.1429,0.1577,0.1672,0.1736,0.1785,0.1906,0.1853,0.1919,0.1694,0.1642,0.1297,0.092,0.0875,0.0571,0.0446,0.0198,0.0193,0.0165,0.0162,-0.0226,0.0197,0.0197,0.0198,0.0198,0,0.0926,0.103,0.1217,0.1366,0.1408,0.148,0.1623,0.1689,0.1693,0.1675,0.1588,0.146,0.1334,0.1159,0.0844,0.0909,0.0658,0.0475,0.0462,0.0395,0.0276,0.0205,0.0227,-0.019,0.0265,0.0266,0.0267,0,0.0782,0.0955,0.096,0.1117,0.1212,0.1198,0.1296,0.1324,0.1301,0.1339,0.1192,0.1173,0.0999,0.0969,0.0851,0.0661,0.0549,0.0629,0.0309,0.03,0.0311,0.0339,0.0415,0.025,0.0286,0.0284,0.0283,0,0.0661,0.076,0.0773,0.0847,0.0873,0.0928,0.1002,0.1063,0.113,0.1046,0.1112,0.0987,0.0885,0.0844,0.0735,0.064,0.0568,0.0531,0.0521,0.0473,0.0368,0.0363,0.0349,0.0495,0.0495,0.0494,0.0297,0,0.0584,0.0639,0.068,0.0742,0.0767,0.0829,0.0828,0.0858,0.0828,0.0803,0.0795,0.0679,0.0631,0.058,0.0521,0.0501,0.0447,0.0377,0.0324,0.037,0.0272,0.0262,0.0341,0.0338,0.0336,0.0333,0,0,0.0447,0.0534,0.0505,0.0569,0.0605,0.054,0.0621,0.0621,0.0611,0.063,0.0569,0.0487,0.0407,0.0415,0.0426,0.0372,0.0305,0.0388,0.0347,0.0349,0.0351,0.0262,0.0255,0.0329,0.0328,0.0327,0.0326,0,0.0432,0.0425,0.0485,0.0502,0.0516,0.051,0.052,0.0516,0.0521,0.0536,0.0462,0.0408,0.0365,0.0324,0.0296,0.034,0.0239,0.0314,0.0425,0.0327,0.0333,0.0337,0.0253,0.0248,0.032,0.032,0.032,0,0.0356,0.037,0.0389,0.0418,0.0417,0.0464,0.0398,0.0422,0.0467,0.0353,0.0386,0.0313,0.0243,0.0245,0.0233,0.0203,0.0173,0.0194,0.0205,0.0231,0.0126,0.0133,0.014,0.0059,0.0059,0.0059,0,0,0.0338,0.0374,0.0376,0.0412,0.0419,0.0397,0.0399,0.0389,0.0374,0.0365,0.0323,0.0268,0.0237,0.0219,0.0181,0.0175,0.01,0.0171,0.0183,0.0194,0.0225,0.0124,0.0131,0.0059,0.0059,0.0059,0,0,0.0329,0.0348,0.0327,0.0373,0.038,0.0373,0.0389,0.0361,0.0344,0.0332,0.0266,0.0253,0.0245,0.0187,0.0194,0.0165,0.0102,0.01,0.0235,0.0249,0.026,0.0315,0.0128,0,0,0,0,0,0.0306,0.0348,0.0329,0.0334,0.0349,0.0379,0.0378,0.0356,0.0319,0.034,0.0297,0.0247,0.0179,0.0185,0.0172,0.0195,0.0056,0.0057,0.0057,0.0227,0.0242,0.0255,0,0,0,0,0,0,0.0308,0.0316,0.0328,0.0326,0.0328,0.0377,0.0328,0.0323,0.0318,0.0314,0.0257,0.0245,0.0206,0.0186,0.0176,0.02,0.0131,0.0056,0.0057,0.0057,0.0232,0.0245,0.0256,0,0,0,0,0,0.0309,0.0316,0.0351,0.0324,0.0326,0.0305,0.0327,0.0322,0.0316,0.0262,0.0251,0.0301,0.0208,0.0195,0.0179,0.0207,0.0138,0.0134,0.0056,0.0057,0.0057,0.0238,0,0,0,0,0,0,0.031,0.0302,0.035,0.0349,0.0316,0.0302,0.0302,0.0322,0.0263,0.0254,0.0302,0.03,0.0209,0.0199,0.019,0.0213,0.0143,0.014,0.0137,0.0057,0.0057,0.0057,0,0,0,0,0,0,0.0298,0.0301,0.0349,0.0342,0.0339,0.0299,0.03,0.0265,0.026,0.0305,0.0302,0.0301,0.0207,0.0202,0.0194,0.0142,0.0148,0.0144,0.0141,0.014,0.0057,0.0057,0,0,0,0,0,0,0.0298,0.0301,0.0342,0.034,0.0337,0.0316,0.0264,0.0269,0.0291,0.0306,0.0288,0.0287,0.0209,0.0202,0.0198,0.0149,0.0144,0.0147,0.0145,0.0143,0.0142,0,0,0,0,0,0,0,0.0298,0.0295,0.0362,0.0338,0.0336,0.0334,0.0334,0.0333,0.0291,0.029,0.0289,0.0288,0.0168,0.0164,0.016,0.0155,0,0,0.0148,0.0146,0,0,0,0,0,0,0,0,0.0292,0.0294,0.0362,0.0362,0.0361,0.0334,0.0334,0.0333,0.029,0.029,0.0289,0.0288,0.0167,0.0164,0.016,0,0,0,0,0,0,0,0,0,0,0,0,0,0,0,0.0362,0.0362,0,0.0334,0.0334,0.0333,0.029,0.029,0.0289,0.0288,0.0166,0.0163,0.0161,0,0,0,0,0,0,0,0,0,0,0,0,0,0,0,0,0,0,0,0,0,0,0,0,0,0,0,0,0,0,0,0,0,0,0,0,0,0,0,0,0,0,0,0,0,0,0,0,0,0,0,0,0,0,0,0,0,0,0,0,0,0,0,0,0,0,0,0,0]}]],[[{"header":{"parameterUnit":"kt","parameterCategory":2,"dx":1,"dy":1,"la1":30.253999710083008,"la2":30.299108505249023,"lo1":-89.0895004272461,"lo2":-89.04439544677734,"nx":28,"ny":28,"refTime":"2022-10-30T21:00:00:Z","depth":"2","parameterNumber":2,"parameterNumberName":"U-component_of_CURRENTS"},"data":[0.5947,0.587,0.5832,0.5669,0.5699,0.5542,0.551,0.5465,0.557,0.553,0.5537,0.6058,0.6315,0.5454,0.5391,0.4993,0.5256,0.4799,0.6649,0.6395,0.6472,0.6719,0.6443,0,0,0,0,0,0.6017,0.6054,0.6099,0.6116,0.6071,0.6247,0.6335,0.6265,0.6303,0.6607,0.679,0.64,0.6337,0.6455,0.6116,0.6158,0.5981,0.5884,0.5576,0.5681,0.5772,0.5505,0.4761,0.4752,0.4744,0.4737,0,0,0.6248,0.6231,0.6322,0.6358,0.6471,0.6499,0.6502,0.6736,0.692,0.7156,0.7555,0.761,0.7766,0.7612,0.7394,0.7248,0.7778,0.7389,0.7411,0.7446,0.728,0.7166,0.7,0.7007,0.7014,0.7021,0.7026,0,0.6335,0.639,0.6479,0.6565,0.6672,0.6779,0.6978,0.7107,0.7457,0.7708,0.7977,0.8161,0.8478,0.8226,0.8345,0.8227,0.8148,0.7993,0.8885,0.7392,0.727,0.7214,0.7239,0.7156,0.7165,0.7172,0.7177,0.7181,0.6454,0.6461,0.6648,0.6704,0.68,0.6978,0.7076,0.7385,0.7526,0.8022,0.8102,0.849,0.863,0.8862,0.8798,0.8793,0.8897,0.82,0.7946,0.8637,0.8586,0.8566,0.8547,0.728,0.7268,0.7257,0.7249,0,0.6503,0.6611,0.6695,0.6887,0.6956,0.7036,0.7337,0.7445,0.7734,0.7974,0.8074,0.8425,0.8631,0.8781,0.8892,0.8828,0.8847,0.8827,0.8179,0.8071,0.8565,0.8544,0.8751,0.875,0.8749,0.8748,0.8747,0,0.6602,0.669,0.6832,0.6901,0.6998,0.7155,0.7323,0.746,0.7721,0.7884,0.8106,0.8274,0.8443,0.8619,0.8603,0.8684,0.8774,0.8585,0.8554,0.7993,0.7935,0.8482,0.8456,0.8693,0.8692,0.8691,0.869,0,0.6649,0.6797,0.6857,0.6923,0.7099,0.72,0.7312,0.7532,0.7682,0.7905,0.8051,0.821,0.8363,0.8415,0.8522,0.845,0.8696,0.8572,0.8503,0.8494,0.7966,0.7904,0.8689,0.8688,0.8688,0.8688,0.8687,0,0.6726,0.6798,0.6896,0.7033,0.7075,0.7172,0.7373,0.7499,0.7729,0.7819,0.7979,0.8061,0.8241,0.817,0.8364,0.8302,0.8317,0.8328,0.8332,0.8226,0.8096,0.7634,0.7689,0.8311,0.8308,0.8305,0.8303,0,0.6717,0.6815,0.6886,0.701,0.7059,0.7189,0.7312,0.7462,0.7574,0.7723,0.7822,0.794,0.7934,0.7978,0.8054,0.8113,0.8177,0.8071,0.8138,0.8141,0.8036,0.8217,0.759,0.7668,0.8265,0.8269,0.8272,0,0.6697,0.6811,0.6842,0.6886,0.7016,0.708,0.7233,0.7366,0.7469,0.7581,0.7715,0.7826,0.7854,0.7885,0.7892,0.7949,0.8106,0.791,0.791,0.7955,0.8264,0.8173,0.819,0.808,0.8085,0.8089,0.8242,0,0.6719,0.6773,0.6808,0.6897,0.6973,0.704,0.7151,0.7248,0.7309,0.7379,0.7529,0.756,0.7648,0.7665,0.766,0.7811,0.7787,0.7733,0.7649,0.7781,0.7826,0.785,0.7529,0.7526,0.7524,0.7523,0,0,0.6671,0.6706,0.6758,0.6822,0.6883,0.6938,0.7005,0.7086,0.719,0.7255,0.7239,0.7392,0.7399,0.7517,0.7574,0.7557,0.7586,0.7532,0.7706,0.7727,0.7745,0.7796,0.7821,0.7519,0.7518,0.7517,0.7517,0,0.6661,0.6691,0.673,0.6799,0.688,0.6916,0.6948,0.7035,0.7094,0.7189,0.7209,0.7278,0.7327,0.7369,0.7389,0.7518,0.7487,0.7525,0.7619,0.7685,0.7708,0.7729,0.7783,0.7808,0.7511,0.7512,0.7512,0,0.6641,0.667,0.6702,0.6763,0.6812,0.6881,0.6886,0.6962,0.7039,0.7006,0.7117,0.7143,0.7159,0.7237,0.7269,0.7218,0.7384,0.7306,0.7318,0.7348,0.7412,0.7439,0.7463,0.7153,0.7152,0.7151,0,0,0.6632,0.667,0.6732,0.6765,0.6797,0.6861,0.6903,0.6939,0.699,0.7016,0.7043,0.7074,0.7125,0.7136,0.7172,0.7219,0.723,0.7265,0.7281,0.7295,0.7332,0.7401,0.7427,0.7148,0.7147,0.7147,0,0,0.6632,0.6697,0.671,0.6744,0.6808,0.687,0.6912,0.6945,0.6999,0.7007,0.7002,0.7006,0.7093,0.7066,0.7019,0.7142,0.7071,0.708,0.7154,0.7175,0.7191,0.723,0.6957,0,0,0,0,0,0.667,0.6689,0.6699,0.6712,0.6784,0.6859,0.6873,0.6921,0.6934,0.6968,0.6999,0.6961,0.705,0.7008,0.7009,0.707,0.7098,0.7107,0.7115,0.7225,0.7247,0.7266,0,0,0,0,0,0,0.6675,0.6687,0.67,0.6755,0.6774,0.6857,0.6851,0.6864,0.6931,0.6936,0.696,0.696,0.6943,0.7004,0.7005,0.7065,0.6956,0.7102,0.7109,0.7116,0.7233,0.7251,0.7266,0,0,0,0,0,0.668,0.6689,0.6785,0.6757,0.6773,0.6845,0.685,0.6861,0.6916,0.6917,0.6922,0.6956,0.6943,0.6945,0.7005,0.7066,0.6955,0.6955,0.7106,0.7112,0.7118,0.7242,0,0,0,0,0,0,0.6683,0.6696,0.6791,0.6799,0.6754,0.6843,0.6853,0.6858,0.6893,0.6901,0.6908,0.691,0.6943,0.6945,0.6946,0.707,0.6953,0.6954,0.6955,0.7111,0.7115,0.712,0,0,0,0,0,0,0.6693,0.6702,0.6795,0.6788,0.6796,0.684,0.685,0.6857,0.6891,0.6879,0.6884,0.6908,0.6925,0.6944,0.6945,0.6957,0.6953,0.6953,0.6954,0.6954,0.7115,0.7118,0,0,0,0,0,0,0.6698,0.6707,0.6785,0.6792,0.6798,0.6893,0.6846,0.6904,0.6929,0.6874,0.6929,0.6929,0.6923,0.6926,0.6945,0.6956,0.6957,0.6953,0.6953,0.6953,0.6954,0,0,0,0,0,0,0,0.6703,0.6625,0.6747,0.6795,0.6801,0.688,0.6882,0.6883,0.6929,0.6929,0.6929,0.6929,0.6949,0.6949,0.695,0.6955,0,0,0.6953,0.6953,0,0,0,0,0,0,0,0,0.6623,0.6624,0.6748,0.675,0.6752,0.688,0.6882,0.6883,0.6929,0.6929,0.6929,0.6929,0.6949,0.6949,0.695,0,0,0,0,0,0,0,0,0,0,0,0,0,0,0,0.6748,0.675,0,0.6881,0.6882,0.6883,0.6929,0.6929,0.6929,0.6929,0.6949,0.6949,0.695,0,0,0,0,0,0,0,0,0,0,0,0,0,0,0,0,0,0,0,0,0,0,0,0,0,0,0,0,0,0,0,0,0,0,0,0,0,0,0,0,0,0,0,0,0,0,0,0,0,0,0,0,0,0,0,0,0,0,0,0,0,0,0,0,0,0,0,0,0]}],[{"header":{"parameterUnit":"kt","parameterCategory":2,"dx":1,"dy":1,"la1":30.253999710083008,"la2":30.299108505249023,"lo1":-89.0895004272461,"lo2":-89.04439544677734,"nx":28,"ny":28,"refTime":"2022-10-30T21:00:00:Z","depth":"2","parameterNumber":3,"parameterNumberName":"V-component_of_CURRENTS"},"data":[0.1864,0.2094,0.2213,0.265,0.2881,0.3239,0.3458,0.3736,0.3937,0.4076,0.4008,0.3862,0.2821,0.192,0.0928,0.0215,0.0085,0.0073,0.0242,0.0502,0.0521,-0.0177,-0.0065,0,0,0,0,0,0.1797,0.1948,0.2192,0.2509,0.2775,0.2901,0.3281,0.3468,0.3756,0.3935,0.3974,0.3266,0.2523,0.1675,0.0455,-0.0265,-0.0311,-0.0506,-0.0399,-0.0386,-0.0376,-0.0319,-0.0493,-0.0495,-0.0498,-0.05,0,0,0.1676,0.181,0.2017,0.2287,0.2531,0.2837,0.304,0.3274,0.3522,0.3703,0.3589,0.3443,0.272,0.1565,0.077,-0.006,-0.0013,-0.0309,-0.0301,-0.0294,-0.0235,-0.018,-0.0384,-0.0385,-0.0385,-0.0386,-0.0386,0,0.1579,0.1654,0.1814,0.2098,0.2293,0.2546,0.2768,0.2934,0.3052,0.3149,0.3233,0.3133,0.2456,0.1788,0.0883,0.0436,0.0006,-0.0133,-0.0086,-0.0034,0.0029,-0.0033,-0.0019,-0.0147,-0.0146,-0.0146,-0.0145,-0.0145,0.1443,0.1553,0.1788,0.1922,0.2004,0.2215,0.2381,0.2457,0.2593,0.2672,0.2768,0.2519,0.2387,0.1625,0.0947,0.0286,0.0199,-0.0097,-0.0147,-0.0059,-0.0128,-0.0111,-0.0096,-0.0138,-0.0139,-0.014,-0.014,0,0.137,0.1445,0.1635,0.1794,0.1867,0.201,0.2207,0.2326,0.2325,0.2469,0.2465,0.2274,0.1954,0.1495,0.0986,0.0639,0.0219,0.006,0.0188,0.0118,-0.0086,-0.0074,-0.0247,-0.025,-0.0253,-0.0256,-0.0258,0,0.127,0.1387,0.1511,0.1596,0.1806,0.1821,0.2001,0.2013,0.2057,0.2171,0.1944,0.1973,0.1524,0.1289,0.0916,0.0503,0.0527,0.0163,0.0075,0.0149,0.015,0.0156,0.0158,0.0157,0.0158,0.016,0.0161,0,0.1139,0.129,0.1444,0.1486,0.1612,0.1688,0.1745,0.1758,0.1845,0.1766,0.1792,0.1575,0.1507,0.1194,0.0836,0.0815,0.0482,0.0394,0.0135,0.0129,0.0093,0.0087,0.0163,0.0163,0.0164,0.0164,0.0165,0,0.1038,0.1136,0.1302,0.1433,0.1465,0.1525,0.1625,0.1677,0.1644,0.1603,0.1507,0.1387,0.1254,0.1111,0.0798,0.0863,0.0639,0.0466,0.0452,0.0348,0.0241,0.0154,0.0146,0.0266,0.0268,0.0269,0.0271,0,0.0918,0.1073,0.1081,0.1216,0.1297,0.1271,0.1346,0.1351,0.131,0.132,0.1174,0.1143,0.0994,0.0964,0.0846,0.0656,0.0551,0.0638,0.0323,0.0314,0.0281,0.0282,0.0346,0.0175,0.0292,0.029,0.0288,0,0.0814,0.0907,0.0918,0.0983,0.0998,0.1038,0.109,0.1123,0.1165,0.1078,0.1115,0.0994,0.0899,0.0855,0.0754,0.0657,0.0577,0.0559,0.055,0.0497,0.0367,0.0316,0.0296,0.0504,0.0503,0.0502,0.0305,0,0.075,0.0805,0.0838,0.089,0.0906,0.0951,0.0935,0.095,0.0913,0.0876,0.0851,0.0739,0.0682,0.0633,0.0579,0.0544,0.0496,0.0431,0.0381,0.0415,0.0321,0.0308,0.0414,0.0412,0.0409,0.0407,0,0,0.0633,0.0715,0.0686,0.074,0.0765,0.0692,0.0758,0.0744,0.0718,0.0724,0.0671,0.0575,0.0498,0.0486,0.0493,0.0444,0.0377,0.0455,0.0401,0.0401,0.0401,0.0314,0.0305,0.0403,0.0403,0.0402,0.0401,0,0.0619,0.0618,0.0672,0.068,0.0678,0.0662,0.067,0.0647,0.0641,0.0644,0.057,0.0513,0.0463,0.0414,0.0381,0.0418,0.0319,0.0393,0.0487,0.0385,0.0388,0.039,0.0306,0.03,0.0395,0.0396,0.0396,0,0.0551,0.0564,0.0581,0.0603,0.0587,0.0619,0.0551,0.0558,0.0589,0.048,0.0498,0.0426,0.0353,0.0344,0.0329,0.0301,0.0258,0.0286,0.0296,0.0318,0.0208,0.0213,0.0216,0.0168,0.0168,0.0168,0,0,0.0534,0.0571,0.0562,0.0596,0.0596,0.0557,0.055,0.0529,0.0503,0.0489,0.0443,0.0385,0.0348,0.0327,0.0285,0.0274,0.0201,0.0266,0.0276,0.0286,0.0313,0.0207,0.0211,0.0168,0.0168,0.0168,0,0,0.0519,0.0532,0.0512,0.0557,0.055,0.0519,0.0524,0.0494,0.0467,0.0453,0.0384,0.037,0.0357,0.0301,0.0308,0.0267,0.0212,0.021,0.0329,0.0341,0.0351,0.0399,0.0239,0,0,0,0,0,0.049,0.0535,0.0517,0.0521,0.0519,0.0529,0.0524,0.0486,0.045,0.0465,0.0416,0.0366,0.0289,0.0294,0.0281,0.0296,0.0165,0.0166,0.0166,0.0314,0.0328,0.0339,0,0,0,0,0,0,0.0491,0.0499,0.0515,0.0493,0.0491,0.0527,0.0472,0.0462,0.0449,0.0443,0.0377,0.0364,0.0319,0.0296,0.0285,0.0301,0.0242,0.0166,0.0166,0.0166,0.0319,0.033,0.0339,0,0,0,0,0,0.0492,0.0498,0.0516,0.049,0.0488,0.0446,0.0471,0.0462,0.0448,0.0385,0.0372,0.0422,0.032,0.0308,0.0289,0.0308,0.0249,0.0245,0.0166,0.0166,0.0166,0.0324,0,0,0,0,0,0,0.0493,0.0475,0.0513,0.0509,0.0483,0.0443,0.044,0.0463,0.0389,0.0378,0.0427,0.0423,0.0322,0.0311,0.0302,0.0314,0.0255,0.0251,0.0248,0.0166,0.0166,0.0166,0,0,0,0,0,0,0.0471,0.0473,0.0511,0.0506,0.05,0.044,0.0438,0.0404,0.0388,0.0434,0.0429,0.0426,0.0328,0.0314,0.0307,0.0254,0.0259,0.0255,0.0253,0.0251,0.0166,0.0166,0,0,0,0,0,0,0.047,0.0471,0.0506,0.0502,0.0498,0.0448,0.0406,0.04,0.0405,0.0437,0.0402,0.0401,0.0331,0.0323,0.031,0.0261,0.0255,0.0259,0.0256,0.0255,0.0253,0,0,0,0,0,0,0,0.0469,0.0486,0.054,0.0499,0.0495,0.0473,0.0471,0.047,0.0405,0.0404,0.0403,0.0402,0.0279,0.0275,0.0271,0.0267,0,0,0.0259,0.0257,0,0,0,0,0,0,0,0,0.0483,0.0485,0.054,0.0539,0.0539,0.0473,0.0471,0.047,0.0404,0.0404,0.0403,0.0402,0.0278,0.0275,0.0272,0,0,0,0,0,0,0,0,0,0,0,0,0,0,0,0.054,0.0539,0,0.0472,0.0471,0.0471,0.0404,0.0404,0.0403,0.0402,0.0277,0.0275,0.0272,0,0,0,0,0,0,0,0,0,0,0,0,0,0,0,0,0,0,0,0,0,0,0,0,0,0,0,0,0,0,0,0,0,0,0,0,0,0,0,0,0,0,0,0,0,0,0,0,0,0,0,0,0,0,0,0,0,0,0,0,0,0,0,0,0,0,0,0,0]}]],[[{"header":{"parameterUnit":"kt","parameterCategory":2,"dx":1,"dy":1,"la1":30.253999710083008,"la2":30.299108505249023,"lo1":-89.0895004272461,"lo2":-89.04439544677734,"nx":28,"ny":28,"refTime":"2022-10-30T21:00:00:Z","depth":"4","parameterNumber":2,"parameterNumberName":"U-component_of_CURRENTS"},"data":[0.3051,0.3153,0.3184,0.3202,0.3265,0.3459,0.3648,0.3946,0.3975,0.4436,0.453,0.4873,0.5069,0.5357,0.5282,0.5336,0.5256,0.587,0.5855,0.5952,0.5992,0.6027,0.5819,0,0,0,0,0,0.316,0.3159,0.329,0.3438,0.3652,0.3793,0.4109,0.431,0.475,0.4755,0.5026,0.5196,0.5323,0.5531,0.5378,0.583,0.5927,0.5624,0.5679,0.5977,0.6021,0.5804,0,0,0,0,0,0,0.3292,0.3327,0.3535,0.3698,0.3922,0.4022,0.4207,0.4422,0.4663,0.5269,0.531,0.5714,0.6078,0.603,0.6073,0.6031,0.5914,0.5676,0.5732,0.5777,0.5552,0.5346,0.5058,0,0,0,0,0,0.3403,0.3567,0.3695,0.3921,0.4114,0.4298,0.4589,0.4698,0.5158,0.5564,0.5772,0.591,0.6143,0.6245,0.6307,0.6275,0.6551,0.6431,0.645,0.6283,0.6183,0.6139,0.6147,0.6186,0.6192,0.6195,0.6197,0,0.3574,0.3649,0.3985,0.4091,0.4244,0.4508,0.4678,0.5082,0.5272,0.5842,0.5951,0.636,0.6579,0.6507,0.6717,0.6696,0.6624,0.6547,0.6369,0.6252,0.6198,0.6195,0.619,0.6233,0.623,0.6227,0.6224,0,0.3665,0.3852,0.4009,0.4315,0.4424,0.457,0.4971,0.5136,0.5524,0.584,0.5986,0.6422,0.6634,0.684,0.7005,0.6824,0.6792,0.6699,0.7036,0.6997,0.6264,0.6244,0.629,0.6277,0.6267,0.6257,0.625,0,0.3845,0.3948,0.4229,0.4296,0.4476,0.4711,0.4962,0.5185,0.5553,0.5776,0.6108,0.6307,0.6601,0.6793,0.6813,0.6757,0.7008,0.6565,0.6511,0.6813,0.6793,0.6774,0.6747,0.6996,0.6995,0.6994,0.6993,0,0.391,0.4134,0.4262,0.4344,0.4614,0.4763,0.4947,0.5278,0.5483,0.5842,0.6031,0.6298,0.6514,0.6607,0.6752,0.6709,0.6949,0.6867,0.6528,0.65,0.6759,0.6733,0.6992,0.6992,0.6992,0.6992,0.6991,0,0.4033,0.4139,0.4302,0.4516,0.4578,0.472,0.5028,0.5218,0.5561,0.5726,0.5986,0.6146,0.6402,0.6363,0.6611,0.6558,0.6591,0.662,0.6624,0.6221,0.6081,0.6362,0.6595,0.6591,0.6588,0.6585,0.6583,0,0.4031,0.418,0.4296,0.4469,0.4559,0.4765,0.4944,0.5172,0.5382,0.5613,0.5805,0.6024,0.6059,0.6179,0.6281,0.6385,0.6459,0.6356,0.6432,0.6433,0.6049,0.6174,0.6421,0.6541,0.6546,0.655,0.6553,0,0.4003,0.4209,0.424,0.4327,0.4554,0.4632,0.4861,0.5077,0.5236,0.5461,0.5666,0.5893,0.5985,0.6058,0.6127,0.6209,0.6386,0.6193,0.6194,0.6214,0.6566,0.617,0.6157,0.6395,0.6401,0.6405,0.6523,0,0.4062,0.4169,0.4217,0.4374,0.4486,0.4599,0.4769,0.4933,0.5092,0.5219,0.5485,0.5605,0.5786,0.5838,0.5872,0.6074,0.6047,0.6008,0.5918,0.607,0.6096,0.612,0.5799,0.5796,0.5793,0.5792,0,0,0.4016,0.4098,0.4189,0.4279,0.4376,0.4518,0.4618,0.4751,0.4962,0.5075,0.5111,0.5421,0.5494,0.5689,0.5775,0.5786,0.5819,0.578,0.5989,0.6011,0.6031,0.6065,0.609,0.5787,0.5786,0.5786,0.5785,0,0.3994,0.409,0.4151,0.4246,0.4407,0.4484,0.4541,0.4702,0.4829,0.5013,0.5102,0.5258,0.5418,0.5509,0.5566,0.574,0.5724,0.5781,0.5882,0.5965,0.599,0.6012,0.6051,0.6075,0.5779,0.5779,0.578,0,0.3974,0.4048,0.4091,0.4222,0.4321,0.4419,0.4472,0.4613,0.4735,0.4782,0.5004,0.5098,0.5182,0.5342,0.5422,0.537,0.5614,0.5537,0.555,0.5564,0.5645,0.5674,0.57,0.5359,0.5358,0.5357,0,0,0.3967,0.4034,0.4145,0.4223,0.4279,0.4411,0.4491,0.4586,0.4709,0.4787,0.4897,0.5016,0.513,0.52,0.5292,0.5407,0.541,0.5487,0.5507,0.5523,0.5546,0.5631,0.5659,0.5352,0.5352,0.5352,0,0,0.3958,0.4067,0.4129,0.4209,0.432,0.4426,0.4514,0.4597,0.4751,0.4806,0.4875,0.4907,0.5094,0.5099,0.5033,0.5275,0.5191,0.5206,0.5277,0.5302,0.5321,0.533,0.5006,0,0,0,0,0,0.3996,0.4038,0.4092,0.4121,0.4284,0.4386,0.4415,0.4553,0.4623,0.4692,0.4822,0.4818,0.5092,0.5034,0.5052,0.5154,0.5291,0.5302,0.5312,0.5434,0.5459,0.5481,0,0,0,0,0,0,0.4007,0.4034,0.4092,0.4187,0.4227,0.4383,0.4436,0.4474,0.4621,0.4643,0.4795,0.4818,0.485,0.5025,0.5041,0.5139,0.5001,0.5296,0.5305,0.5313,0.5442,0.5464,0.5482,0,0,0,0,0,0.4016,0.4039,0.4265,0.4189,0.4224,0.4406,0.4439,0.4471,0.461,0.4687,0.472,0.4725,0.4845,0.4869,0.5034,0.5132,0.4989,0.4996,0.5301,0.5309,0.5315,0.5453,0,0,0,0,0,0,0.4024,0.4067,0.4276,0.4293,0.4215,0.4406,0.4438,0.4468,0.4649,0.4682,0.4608,0.4621,0.4841,0.4861,0.4879,0.5131,0.498,0.4987,0.499,0.5307,0.5313,0.5318,0,0,0,0,0,0,0.4057,0.408,0.4284,0.4309,0.433,0.4404,0.4433,0.4484,0.4649,0.456,0.4578,0.4612,0.4815,0.4854,0.4869,0.4943,0.4973,0.4979,0.4983,0.4986,0.5312,0.5316,0,0,0,0,0,0,0.407,0.409,0.4305,0.4321,0.434,0.4538,0.4452,0.4613,0.4676,0.4549,0.4686,0.4691,0.4805,0.4823,0.4861,0.4928,0.4939,0.4973,0.4977,0.498,0.4982,0,0,0,0,0,0,0,0.408,0.3907,0.4179,0.4331,0.4348,0.4451,0.4455,0.446,0.4677,0.4681,0.4685,0.4689,0.4939,0.4946,0.4953,0.4916,0,0,0.4973,0.4976,0,0,0,0,0,0,0,0,0.3903,0.3906,0.418,0.4184,0.4187,0.4452,0.4455,0.4459,0.4678,0.4681,0.4684,0.4687,0.4941,0.4946,0.4952,0,0,0,0,0,0,0,0,0,0,0,0,0,0,0,0.418,0.4183,0,0.4452,0.4455,0.4458,0.4678,0.4681,0.4684,0.4686,0.4943,0.4947,0.4951,0,0,0,0,0,0,0,0,0,0,0,0,0,0,0,0,0,0,0,0,0,0,0,0,0,0,0,0,0,0,0,0,0,0,0,0,0,0,0,0,0,0,0,0,0,0,0,0,0,0,0,0,0,0,0,0,0,0,0,0,0,0,0,0,0,0,0,0,0]}],[{"header":{"parameterUnit":"kt","parameterCategory":2,"dx":1,"dy":1,"la1":30.253999710083008,"la2":30.299108505249023,"lo1":-89.0895004272461,"lo2":-89.04439544677734,"nx":28,"ny":28,"refTime":"2022-10-30T21:00:00:Z","depth":"4","parameterNumber":3,"parameterNumberName":"V-component_of_CURRENTS"},"data":[0.1202,0.1375,0.1472,0.176,0.1927,0.2188,0.2342,0.2404,0.2398,0.2413,0.2108,0.1964,0.1379,0.1728,0.0789,0.0663,0.0468,-0.0129,-0.0139,-0.0387,-0.0377,-0.0368,-0.025,0,0,0,0,0,0.1183,0.1291,0.1481,0.1719,0.1945,0.2089,0.2319,0.2391,0.2482,0.2455,0.2418,0.2104,0.1491,0.1237,0.081,0.0667,0.0125,0.0147,-0.0055,-0.0381,-0.037,-0.0259,0,0,0,0,0,0,0.1145,0.1239,0.1419,0.1635,0.1861,0.2071,0.2167,0.2283,0.2384,0.2401,0.2365,0.2006,0.1799,0.1175,0.0756,0.0335,0.0222,0.0077,0.0063,0.0068,0.0222,0.035,0.0248,0,0,0,0,0,0.1099,0.1184,0.1314,0.1555,0.1726,0.193,0.2114,0.2201,0.2295,0.2308,0.2242,0.1935,0.16,0.1109,0.0652,0.0235,-0.0057,-0.0205,-0.0202,-0.0195,-0.0139,-0.019,-0.017,-0.0328,-0.0327,-0.0326,-0.0325,0,0.104,0.1128,0.1349,0.1461,0.1543,0.1724,0.1861,0.1946,0.2036,0.2063,0.2111,0.1883,0.1711,0.1099,0.0683,0.0102,0.0014,-0.0175,-0.0165,-0.0118,-0.0177,-0.0159,-0.0143,-0.0316,-0.0317,-0.0318,-0.0318,0,0.1007,0.1086,0.1242,0.1392,0.1462,0.158,0.1758,0.1844,0.1857,0.1942,0.1944,0.1775,0.1482,0.1119,0.0693,0.0436,0.0086,-0.0047,0.0163,0.01,-0.0134,-0.0121,-0.0302,-0.0305,-0.0308,-0.031,-0.0312,0,0.0964,0.1062,0.1187,0.1255,0.1425,0.1456,0.16,0.1621,0.1659,0.1727,0.1574,0.1567,0.1231,0.1013,0.0718,0.0362,0.0373,0.0103,0.0025,0.0183,0.0194,0.0117,0.0122,0.0097,0.0099,0.01,0.0102,0,0.0888,0.1018,0.1141,0.1178,0.1291,0.1361,0.1417,0.1429,0.1495,0.1444,0.1456,0.1285,0.1227,0.0973,0.0674,0.0674,0.0356,0.0304,0.0086,0.008,0.0128,0.013,0.0104,0.0104,0.0104,0.0105,0.0105,0,0.0834,0.091,0.1043,0.1157,0.1184,0.1241,0.1321,0.1368,0.1342,0.1316,0.1245,0.1155,0.1046,0.095,0.0674,0.0739,0.0553,0.0409,0.0396,0.0308,0.0222,0.022,0.022,0.0222,0.0224,0.0226,0.0227,0,0.0756,0.0873,0.089,0.1001,0.1062,0.1057,0.1118,0.1125,0.1099,0.1105,0.0998,0.0979,0.0875,0.0857,0.0755,0.0593,0.0499,0.0588,0.0299,0.0291,0.026,0.0246,0.0462,0.0253,0.025,0.0248,0.0246,0,0.0684,0.0766,0.0777,0.0832,0.0853,0.0883,0.093,0.0956,0.0987,0.0935,0.096,0.0874,0.0805,0.077,0.0694,0.0609,0.0528,0.0533,0.0525,0.0463,0.0325,0.0281,0.026,0.047,0.0468,0.0467,0.0264,0,0.0647,0.0697,0.0721,0.0765,0.0781,0.0817,0.0811,0.0829,0.0811,0.0784,0.0769,0.0688,0.0643,0.0607,0.0567,0.0529,0.0486,0.0437,0.0393,0.0417,0.0322,0.0309,0.0437,0.0434,0.0433,0.0431,0,0,0.0567,0.0629,0.0611,0.0651,0.0673,0.0626,0.0677,0.0672,0.0659,0.0663,0.0633,0.0562,0.0504,0.0488,0.0497,0.0459,0.0396,0.0468,0.0411,0.0409,0.0407,0.032,0.0309,0.0428,0.0427,0.0427,0.0426,0,0.0553,0.056,0.0601,0.0609,0.0611,0.0601,0.061,0.0596,0.0598,0.0608,0.0552,0.0512,0.0478,0.0435,0.0409,0.0439,0.0351,0.0421,0.0494,0.0398,0.0399,0.0399,0.0314,0.0306,0.0422,0.0422,0.0422,0,0.0505,0.0514,0.0531,0.0548,0.0539,0.0565,0.0516,0.0525,0.0552,0.0471,0.0495,0.0442,0.0384,0.0378,0.0369,0.0345,0.0301,0.0334,0.0341,0.0359,0.0257,0.0259,0.026,0.024,0.024,0.024,0,0,0.049,0.0521,0.0514,0.0542,0.0543,0.0518,0.0515,0.0503,0.0486,0.0479,0.0449,0.0407,0.0379,0.0364,0.0333,0.0324,0.0257,0.0318,0.0326,0.0334,0.0355,0.0256,0.0258,0.024,0.024,0.024,0,0,0.0476,0.0487,0.0478,0.0513,0.0509,0.0484,0.0492,0.0474,0.046,0.0455,0.0402,0.0392,0.0387,0.0342,0.0347,0.0316,0.0273,0.0271,0.0364,0.0373,0.0382,0.0419,0.0291,0,0,0,0,0,0.0454,0.0488,0.048,0.0483,0.0485,0.049,0.0487,0.0463,0.0443,0.0457,0.0426,0.0387,0.0332,0.0336,0.0326,0.0338,0.0237,0.0238,0.0238,0.0354,0.0365,0.0374,0,0,0,0,0,0,0.0455,0.0461,0.0478,0.0459,0.0459,0.0489,0.0451,0.0445,0.0442,0.0439,0.0394,0.0385,0.0349,0.0337,0.0329,0.0341,0.0294,0.0238,0.0238,0.0238,0.0358,0.0367,0.0374,0,0,0,0,0,0.0456,0.046,0.0478,0.0457,0.0457,0.0431,0.045,0.0445,0.0444,0.0393,0.0384,0.0429,0.035,0.0341,0.0332,0.0346,0.0299,0.0296,0.0238,0.0238,0.0238,0.0362,0,0,0,0,0,0,0.0456,0.0446,0.0476,0.0474,0.0454,0.0429,0.0428,0.0446,0.0397,0.0389,0.0424,0.0422,0.0351,0.0343,0.0336,0.0351,0.0303,0.03,0.0299,0.0238,0.0238,0.0239,0,0,0,0,0,0,0.0443,0.0445,0.0475,0.0473,0.0469,0.0427,0.0426,0.0399,0.0396,0.0429,0.0427,0.0423,0.0354,0.0345,0.034,0.0298,0.0306,0.0304,0.0302,0.0301,0.0238,0.0239,0,0,0,0,0,0,0.0442,0.0444,0.0473,0.0471,0.0468,0.0435,0.04,0.0398,0.0411,0.0431,0.041,0.0409,0.0356,0.035,0.0342,0.0303,0.0299,0.0306,0.0304,0.0303,0.0302,0,0,0,0,0,0,0,0.0442,0.045,0.0493,0.0469,0.0466,0.0449,0.0448,0.0447,0.0411,0.041,0.041,0.0409,0.0322,0.0319,0.0316,0.0307,0,0,0.0307,0.0305,0,0,0,0,0,0,0,0,0.0448,0.045,0.0493,0.0493,0.0492,0.0449,0.0448,0.0447,0.0411,0.041,0.041,0.041,0.0321,0.0319,0.0316,0,0,0,0,0,0,0,0,0,0,0,0,0,0,0,0.0493,0.0493,0,0.0449,0.0448,0.0448,0.0411,0.041,0.041,0.041,0.0321,0.0319,0.0317,0,0,0,0,0,0,0,0,0,0,0,0,0,0,0,0,0,0,0,0,0,0,0,0,0,0,0,0,0,0,0,0,0,0,0,0,0,0,0,0,0,0,0,0,0,0,0,0,0,0,0,0,0,0,0,0,0,0,0,0,0,0,0,0,0,0,0,0,0]}]]]